User: anonymous   Login
Location: Space Photons Observatory
(33.2428°N, 111.5467°W)
Time: 01:52:27
(UTC-07:00)
Language:

RESURS DK-1 - Orbit

View from above orbital plane
View from above orbital plane
View from above satellite
View from above satellite

Ground track
Ground track

The orbit data is extracted from the following two-line orbital elements,

1 29228U 06021A   18111.93443494 +.00000158 +00000-0 +19320-4 0  9997
2 29228 069.9372 032.4624 0007331 244.4171 115.6232 15.02308664654469
Epoch (UTC): 21 April 2018 22:25:35
Eccentricity: 0.0007331
inclination: 69.9372°
perigee height: 554 km
apogee height: 565 km
right ascension of ascending node: 32.4624°
argument of perigee: 244.4171°
revolutions per day: 15.02308664
mean anomaly at epoch: 115.6232°
orbit number at epoch: 65446

The dashed part of the orbit path shows where the satellite is in the earth's shadow,  

DLR